IUS DEB

Satellite information

Favourite Embed

Satellite Type and Status

DEBRISIN ORBIT

Key statistics

Satellite IUS DEB at a glance.

Uptime

9545

Days in orbit

Revolutions

≈ 7.0

Per day

Orbit

MEO

Medium Earth Orbit

Inclination

28.1

Latest

Satellite identification and parameters

Extended collection of information and parameters for IUS DEB.

Object identification

Identified? True

Debris? True

Object name: IUS DEB

International designator: 1999-040P

Object number (NORAD): 43366

Object ID (CCSDS): 43366

Country: UNITED STATES OF AMERICA (US)

Current information (Y/N): Y

RCS size: SMALL

Orbital parameters

Period: 204.867 minutes

Inclination: 28.1288 deg

SMA: 11511.742 km

Apoapsis: 9530.715 km

Periapsis: 736.499 km

RAAN: 90.2119 deg

Eccentricy: 0.3819672

Argument of periapsis: 198.3979 deg

Mean anomaly: 142.8318 deg

Mean motion: 7.02896192 rev/day

Mean motion (dot): 0.00000958 rev/day2

B* drag term: 0.0044561 1/REarth

Two-line elements (TLE)

Creation date: July 20, 2025, 5:14 p.m.

Reference frame: TEME

Reference center: EARTH

Epoch: July 19, 2025, 11:44 p.m. UTC

TLE line 0: 0 IUS DEB

TLE line 1: 1 43366U 99040P 25200.98933926 .00000958 00000-0 44561-2 0 9996

TLE line 2: 2 43366 28.1288 90.2119 3819672 198.3979 142.8318 7.02896192244884

Live tracking on map

Real-time ground track for satellite IUS DEB.

In-orbit conjunctions

A list of the most updated potential collisions computed for object IUS DEB.

Target Orbit TCA Probability of collision Miss distance Type
FALCON 9 R/B LEO 2025-02-15 12:12:05 TBA 749.0 (m) ROCKET BODY

Associated space launch

STS-93 marked the 95th launch of the Space Shuttle, the 26th launch of Columbia, and the 21st night launch of a Space Shuttle. Eileen Collins became the first female shuttle Commander on this flight. Its primary payload was the Chandra X-ray Observatory.

IUS DEB was lifted into orbit during the mission ‘Space Shuttle Columbia OV-102 | STS-93’, on board a Space Shuttle space rocket.

The launch took place on July 23, 1999, 4:31 a.m. from Launch Complex 39B.

For more information about the launch, click the button.

Launch to space Space Shuttle Columbia OV-102 | STS-93
Space Shuttle Columbia OV-102 | STS-93

Agency: N/A

Status: Launch Successful

Launch date: July 23, 1999, 4:31 a.m. UTC

Rocket: Space Shuttle

Launch pad: Launch Complex 39B

Location: Kennedy Space Center, FL, USA

...

Latest news about this satellite

News about space launch
NASA’s Chandra Reveals Star’s Inner Conflict Before Explosion

The inside of a star turned on itself before it spectacularly exploded, according to a new study from NASA’s Chandra X-ray Observatory. Today, this shattered star, known as the Cassiopeia A supernova remnant, is one of the best-known, well-studied objects...

News about space launch
Reaching Out

This image released on Aug. 20, 2025, combines new radio data from the Australia Telescope Compact Array with X-ray data from NASA’s Chandra X-ray Observatory. Chandra first released an image of this pulsar and its surrounding hand-shaped nebula in 2009. ...

News about space launch
X-ray and Radio go ‘Hand in Hand’ in New Image

In 2009, NASA’s Chandra X-ray Observatory released a captivating image: a pulsar and its surrounding nebula that is shaped like a hand. Since then, astronomers have used Chandra and other telescopes to continue to observe this object. Now, new radio data ...


Newsletter sign-up

Weekly statistics, charts and insights to help you stay on top of the space industry.